Tracking 30466 objects as of 17-May-2025
HD Live streaming from Space Station
objects crossing your sky now

THORAD AGENA D DEB

Track THORAD AGENA D DEB now!
10-day predictions


NORAD ID: 19667
Int'l Code: 1970-025QC
Perigee: 1,065.5 km
Apogee: 1,585.3 km
Inclination: 99.7 °
Period: 112.0 minutes
Semi major axis: 7696 km
RCS: 0.0155 m2 (small)
Launch date: April 8, 1970
Source: United States (US)
Launch site: AIR FORCE WESTERN TEST RANGE (AFWTR)

Note: This is SATELLITE DEBRIS
Your satellite tracking list
Your tracking list is empty




NASA's NSSDC Master Catalog

Two Line Element Set (TLE):
1 19667U 70025QC  25135.33538528  .00000259  00000-0  94454-3 0  9991
2 19667  99.7365  86.7362 0337683 294.4690 222.8869 12.85800680730719
Source of the keplerian elements: AFSPC